Weather History for Baker, OR

Change the Weather History Date:

Monday, November 5, 2012

  Actual Average Record
Temperature  
Mean Temperature 46 °F 37 °F  
Max Temperature 64 °F 50 °F 69 °F (1949)
Min Temperature 28 °F 25 °F 5 °F (2003)
Degree Days  
Heating Degree Days 19 28  
Month to date heating degree days 101 135  
Since 1 July heating degree days 1072 1214  
Cooling Degree Days 0 0  
Month to date cooling degree days 0 0  
Year to date cooling degree days 184 169  
Moisture  
Dew Point 34 °F    
Average Humidity 74    
Maximum Humidity 100    
Minimum Humidity 48    
Precipitation  
Precipitation 0.00 in 0.03 in 0.48 in (1991)
Month to date precipitation T 0.14  
Year to date precipitation 6.92 8.39  
Sea Level Pressure  
Sea Level Pressure 30.38 in    
Wind  
Wind Speed 1 mph (SSE)    
Max Wind Speed 8 mph    
Max Gust Speed 9 mph    
Visibility 4 miles    
Events Fog , Snow    
T = Trace of Precipitation, MM = Missing Value Source: NWS Daily Summary

Daily Weather History Graph

Daily Weather History Graph

Search for Another Location

Airport:

Trip Planner

Search our weather history database for the weather conditions in past years. The results will help you decide how hot, cold, wet, or windy it might be!

Date:

Astronomy

Nov. 05, 2012 Rise Set
Actual Time 6:35 AM PST 4:33 PM PST
Civil Twilight 6:04 AM PST 5:04 PM PST
Nautical Twilight 5:29 AM PST 5:39 PM PST
Astronomical Twilight 4:55 AM PST 6:13 PM PST
Moon 10:16 PM PST (11/5) 11:58 AM PST (11/5)
Length of Visible Light 10h 59m
Length of Day
9h 57m
Waning Gibbous, 62% of the Moon is Illuminated
Nov 5
Waning Gibbous
Nov 6
Last Quarter
Nov 13
New
Nov 20
First Quarter
Nov 28
Full

Hourly Weather History & Observations

Time (PST) Temp. Windchill Dew Point Humidity Pressure Visibility Wind Dir Wind Speed Gust Speed Precip Events Conditions
12:53 AM 33.1 °F - 30.9 °F 92% 30.42 in 10.0 mi Calm Calm - N/A   Clear
1:53 AM 35.1 °F - 33.1 °F 92% 30.42 in 10.0 mi Calm Calm - N/A   Clear
2:37 AM 33.8 °F - 33.8 °F 100% 30.41 in 2.0 mi Calm Calm - N/A   Partly Cloudy
2:44 AM 30.2 °F - 30.2 °F 100% 30.41 in 1.8 mi Calm Calm - N/A   Partly Cloudy
2:53 AM 32.0 °F 28.7 °F 32.0 °F 100% 30.42 in 2.5 mi South 3.5 mph - N/A   Clear
2:57 AM 32.0 °F 28.7 °F 32.0 °F 100% 30.40 in 3.0 mi South 3.5 mph - N/A   Partly Cloudy
3:07 AM 32.0 °F - 30.2 °F 93% 30.40 in 1.5 mi Calm Calm - N/A   Scattered Clouds
3:11 AM 30.2 °F - 30.2 °F 100% 30.40 in 0.8 mi Calm Calm - N/A   Mist
3:33 AM 32.0 °F - 32.0 °F 100% 30.40 in 0.2 mi Calm Calm - N/A Fog Fog
3:50 AM 30.2 °F - 28.4 °F 93% 30.40 in 0.5 mi Calm Calm - N/A Fog Light Freezing Fog
3:53 AM 30.0 °F - 28.0 °F 92% 30.43 in 0.5 mi Calm Calm - N/A Fog Light Freezing Fog
4:03 AM 30.2 °F - 30.2 °F 100% 30.40 in 0.5 mi Calm Calm - N/A Fog Light Freezing Fog
4:16 AM 30.2 °F - 30.2 °F 100% 30.40 in 0.5 mi Calm Calm - N/A Fog Light Freezing Fog
4:39 AM 30.2 °F - 30.2 °F 100% 30.39 in 1.2 mi Calm Calm - N/A   Scattered Clouds
4:42 AM 30.2 °F - 30.2 °F 100% 30.39 in 4.0 mi Calm Calm - N/A   Scattered Clouds
4:53 AM 30.0 °F - 28.9 °F 96% 30.42 in 8.0 mi Calm Calm - N/A   Scattered Clouds
5:09 AM 28.4 °F - 28.4 °F 100% 30.38 in 4.0 mi Calm Calm - N/A   Mostly Cloudy
5:14 AM 28.4 °F - 28.4 °F 100% 30.38 in 0.8 mi Calm Calm - N/A   Mist
5:23 AM 28.4 °F - 28.4 °F 100% 30.38 in 0.2 mi Calm Calm - N/A Fog Light Freezing Fog
5:38 AM 28.4 °F - 28.4 °F 100% 30.37 in 0.5 mi Calm Calm - N/A Fog Light Freezing Fog
5:53 AM 28.9 °F 23.9 °F 28.0 °F 96% 30.43 in 0.2 mi West 4.6 mph - 0.00 in Fog , Snow Light Snow
6:09 AM 28.4 °F 23.3 °F 28.4 °F 100% 30.38 in 0.5 mi West 4.6 mph - 0.00 in Fog Light Freezing Fog
6:33 AM 28.4 °F 23.3 °F 28.4 °F 100% 30.39 in 0.2 mi Variable 4.6 mph - 0.00 in Fog Light Freezing Fog
6:53 AM 28.0 °F 24.2 °F 28.0 °F 100% 30.46 in 0.2 mi SE 3.5 mph - 0.00 in Fog Light Freezing Fog
7:03 AM 28.4 °F - 28.4 °F 100% 30.41 in 0.5 mi Calm Calm - N/A Fog Light Freezing Fog
7:26 AM 30.2 °F - 30.2 °F 100% 30.40 in 0.2 mi Calm Calm - N/A Fog Light Freezing Fog
7:43 AM 32.0 °F - 32.0 °F 100% 30.40 in 1.0 mi Calm Calm - N/A   Mist
7:53 AM 33.1 °F - 33.1 °F 100% 30.46 in 2.0 mi Calm Calm - N/A   Mostly Cloudy
8:24 AM 35.6 °F - 35.6 °F 100% 30.41 in 7.0 mi Calm Calm - N/A   Mostly Cloudy
8:34 AM 37.4 °F 34.9 °F 35.6 °F 93% 30.41 in 9.0 mi North 3.5 mph - N/A   Scattered Clouds
8:53 AM 41.0 °F - 39.9 °F 96% 30.46 in 10.0 mi Calm Calm - N/A   Partly Cloudy
9:53 AM 51.1 °F - 42.1 °F 71% 30.43 in 10.0 mi Calm Calm - N/A   Clear
10:53 AM 55.0 °F - 42.1 °F 62% 30.41 in 10.0 mi Calm Calm - N/A   Clear
11:53 AM 57.9 °F - 42.1 °F 56% 30.37 in 10.0 mi Variable 3.5 mph - N/A   Clear
12:53 PM 60.1 °F - 43.0 °F 53% 30.36 in 10.0 mi Calm Calm - N/A   Clear
1:53 PM 62.1 °F - 43.0 °F 50% 30.34 in 10.0 mi South 4.6 mph - N/A   Clear
2:53 PM 64.0 °F - 44.1 °F 48% 30.33 in 6.0 mi Calm Calm - N/A   Haze
3:53 PM 61.0 °F - 44.1 °F 54% 30.33 in 5.0 mi Calm Calm - N/A   Haze
4:53 PM 52.0 °F - 42.1 °F 69% 30.34 in 10.0 mi ESE 3.5 mph - N/A   Clear
5:53 PM 48.0 °F - 42.1 °F 80% 30.36 in 10.0 mi Calm Calm - N/A   Clear
6:53 PM 43.0 °F - 39.9 °F 89% 30.37 in 10.0 mi Calm Calm - N/A   Clear
7:53 PM 39.0 °F 36.8 °F 37.9 °F 96% 30.36 in 10.0 mi ESE 3.5 mph - N/A   Clear
8:53 PM 37.0 °F - 35.1 °F 93% 30.35 in 10.0 mi Calm Calm - N/A   Clear
9:53 PM 37.9 °F 35.5 °F 37.0 °F 97% 30.32 in 10.0 mi SW 3.5 mph - N/A   Clear
10:53 PM 34.0 °F 31.0 °F 33.1 °F 96% 30.31 in 5.0 mi NNE 3.5 mph - N/A   Clear
11:08 PM 33.8 °F 30.8 °F 32.0 °F 93% 30.29 in 2.0 mi NNE 3.5 mph - N/A   Clear
11:19 PM 32.0 °F 28.7 °F 32.0 °F 100% 30.28 in 1.0 mi North 3.5 mph - N/A   Mist
11:26 PM 33.8 °F - 32.0 °F 93% 30.28 in 0.8 mi Calm Calm - N/A   Mist
11:30 PM 33.8 °F 30.8 °F 32.0 °F 93% 30.29 in 2.0 mi SSW 3.5 mph - N/A   Scattered Clouds
11:32 PM 33.8 °F - 33.8 °F 100% 30.29 in 3.0 mi Calm Calm - N/A   Mostly Cloudy
11:46 PM 33.8 °F - 32.0 °F 93% 30.29 in 5.0 mi Calm Calm - N/A   Scattered Clouds
11:53 PM 33.1 °F - 32.0 °F 96% 30.30 in 10.0 mi Calm Calm - N/A   Scattered Clouds